This is the latest recevied weather packets stored in our database for station/object N0QWM. If no packets are shown the sender has not sent any weather packets the latest 10 day(s).
| Time | Temp. | Humidity | Pressure | Rain* | Wind** | Luminosity | Snow |
|---|---|---|---|---|---|---|---|
| 1777315147 | 26.11° C | 70% | 1022.5 hPa | 0 mm | - | 714 W/m² | - |
| 1777314843 | 25.56° C | 71% | 1022.8 hPa | 0 mm | - | 782 W/m² | - |
| 1777314540 | 25.56° C | 73% | 1022.5 hPa | 0 mm | - | 278 W/m² | - |
| 1777314236 | 26.11° C | 70% | 1022.6 hPa | 0 mm | - | 242 W/m² | - |
| 1777313934 | 25.56° C | 71% | 1022.5 hPa | 0 mm | - | 703 W/m² | - |
| 1777313631 | 25° C | 72% | 1022.5 hPa | 0 mm | - | 422 W/m² | - |
| 1777313329 | 25° C | 75% | 1022.6 hPa | 0 mm | - | 765 W/m² | - |
| 1777313025 | 24.44° C | 75% | 1022.9 hPa | 0 mm | - | 766 W/m² | - |
| 1777312722 | 24.44° C | 73% | 1022.7 hPa | 0 mm | - | 235 W/m² | - |
| 1777312418 | 25.56° C | 73% | 1022.6 hPa | 0 mm | - | 221 W/m² | - |
| 1777312116 | 26.11° C | 71% | 1022.7 hPa | 0 mm | - | 271 W/m² | - |
| 1777311813 | 26.11° C | 70% | 1022.7 hPa | 0 mm | - | 902 W/m² | - |
| 1777311510 | 26.11° C | 70% | 1022.9 hPa | 0 mm | - | 534 W/m² | - |
| 1777311207 | 25.56° C | 71% | 1022.9 hPa | 0 mm | - | 691 W/m² | - |
| 1777310905 | 25.56° C | 73% | 1022.7 hPa | 0 mm | - | 717 W/m² | - |
| 1777310602 | 25° C | 74% | 1022.8 hPa | 0 mm | - | 825 W/m² | - |
| 1777310300 | 25° C | 73% | 1023.1 hPa | 0 mm | - | 511 W/m² | - |
| 1777309997 | 25° C | 72% | 1022.9 hPa | 0 mm | - | 314 W/m² | - |
| 1777309695 | 25° C | 75% | 1023.2 hPa | 0 mm | - | 563 W/m² | - |
| 1777309392 | 24.44° C | 74% | 1022.9 hPa | 0 mm | - | 759 W/m² | - |
| 1777309090 | 24.44° C | 74% | 1023 hPa | 0 mm | - | 238 W/m² | - |
| 1777308787 | 24.44° C | 75% | 1023.2 hPa | 0 mm | - | 436 W/m² | - |
| 1777308481 | 24.44° C | 75% | 1023.2 hPa | 0 mm | - | 365 W/m² | - |
| 1777308177 | 24.44° C | 76% | 1023.2 hPa | 0 mm | - | 744 W/m² | - |
| 1777307873 | 25.56° C | 72% | 1023.3 hPa | 0 mm | - | 684 W/m² | - |
* Rain latest hour (hover to see other rain measurements)
** Current wind speed in m/s (hover to see current wind gust speed)